This is the latest recevied weather packets stored in our database for station/object OK1ZDJ-13. If no packets are shown the sender has not sent any weather packets the latest 10 day(s).
| Time | Temp. | Humidity | Pressure | Rain* | Wind** | Luminosity | Snow |
|---|---|---|---|---|---|---|---|
| 1777895881 | 23.33° C | 34% | 1014.7 hPa | - | - | - | - |
| 1777895281 | 23.33° C | 34% | 1014.8 hPa | - | - | - | - |
| 1777894681 | 22.78° C | 35% | 1014.9 hPa | - | - | - | - |
| 1777893481 | 22.22° C | 34% | 1015 hPa | - | - | - | - |
| 1777892881 | 22.78° C | 35% | 1015 hPa | - | - | - | - |
| 1777892281 | 22.22° C | 34% | 1015 hPa | - | - | - | - |
| 1777891681 | 22.22° C | 35% | 1015.2 hPa | - | - | - | - |
| 1777891081 | 22.22° C | 34% | 1015.3 hPa | - | - | - | - |
| 1777890481 | 22.22° C | 34% | 1015.5 hPa | - | - | - | - |
| 1777889881 | 22.22° C | 35% | 1015.7 hPa | - | - | - | - |
| 1777889281 | 21.67° C | 35% | 1015.9 hPa | - | - | - | - |
| 1777888681 | 21.11° C | 36% | 1015.9 hPa | - | - | - | - |
| 1777888081 | 20.56° C | 37% | 1015.9 hPa | - | - | - | - |
| 1777887486 | 20.56° C | 35% | 1015.9 hPa | - | - | - | - |
| 1777886880 | 20.56° C | 36% | 1015.9 hPa | - | - | - | - |
| 1777886279 | 20° C | 36% | 1016.1 hPa | - | - | - | - |
| 1777885080 | 19.44° C | 38% | 1016.2 hPa | - | - | - | - |
| 1777884480 | 18.89° C | 40% | 1016.1 hPa | - | - | - | - |
| 1777883879 | 18.33° C | 41% | 1016.2 hPa | - | - | - | - |
| 1777883280 | 18.33° C | 42% | 1016.3 hPa | - | - | - | - |
| 1777882679 | 18.33° C | 42% | 1016.2 hPa | - | - | - | - |
| 1777882079 | 18.33° C | 41% | 1016.1 hPa | - | - | - | - |
| 1777881479 | 18.33° C | 42% | 1016 hPa | - | - | - | - |
| 1777880879 | 17.78° C | 43% | 1016.1 hPa | - | - | - | - |
| 1777880280 | 17.78° C | 42% | 1016.1 hPa | - | - | - | - |
* Rain since midnight (hover to see other rain measurements)
** Current wind speed in m/s (hover to see current wind gust speed)